This is the latest recevied weather packets stored in our database for station/object n7wwk-1. If no packets are shown the sender has not sent any weather packets the latest 10 day(s).
| Time | Temp. | Humidity | Pressure | Rain* | Wind** | Luminosity | Snow |
|---|---|---|---|---|---|---|---|
| 1777459805 | 18.33° C | 99% | 1014.6 hPa | 0 mm | - | 4 W/m² | - |
| 1777459205 | 17.78° C | 99% | 1014.4 hPa | 0 mm | - | 1 W/m² | - |
| 1777457405 | 17.78° C | 99% | 1014.4 hPa | 0 mm | - | 0 W/m² | - |
| 1777452605 | 17.78° C | 99% | 1013.9 hPa | 0 mm | - | 0 W/m² | - |
| 1777451405 | 17.78° C | 98% | 1014.1 hPa | 0 mm | - | 0 W/m² | - |
| 1777447804 | 17.78° C | 98% | 1013.9 hPa | 0 mm | - | 0 W/m² | - |
| 1777447205 | 17.78° C | 97% | 1014.2 hPa | 0 mm | - | 0 W/m² | - |
| 1777442405 | 18.89° C | 96% | 1014.9 hPa | 0 mm | - | 0 W/m² | - |
| 1777441805 | 18.89° C | 96% | 1014.9 hPa | 0 mm | - | 0 W/m² | - |
| 1777437606 | 19.44° C | 94% | 1016.3 hPa | 0 mm | - | 0 W/m² | - |
| 1777432205 | 20.56° C | 90% | 1015.9 hPa | 0 mm | - | 0 W/m² | - |
| 1777429806 | 21.11° C | 87% | 1015.5 hPa | 0 mm | - | 0 W/m² | - |
| 1777426805 | 21.67° C | 86% | 1015.4 hPa | 0 mm | - | 0 W/m² | - |
| 1777425005 | 21.67° C | 84% | 1015.1 hPa | 0 mm | - | 0 W/m² | - |
| 1777423205 | 22.78° C | 82% | 1015.5 hPa | 0 mm | - | 0 W/m² | - |
| 1777415405 | 26.11° C | 69% | 1016.5 hPa | 0 mm | - | 179 W/m² | - |
| 1777412405 | 26.67° C | 65% | 1016.7 hPa | 0 mm | - | 322 W/m² | - |
| 1777399805 | 28.89° C | 63% | 1018.9 hPa | 0 mm | - | 788 W/m² | - |
| 1777384805 | 25° C | 77% | 1018.7 hPa | 0 mm | - | 525 W/m² | - |
| 1777381805 | 23.33° C | 84% | 1017.9 hPa | 0 mm | - | 187 W/m² | - |
| 1777380605 | 22.78° C | 87% | 1018.5 hPa | 0 mm | - | 272 W/m² | - |
| 1777380137 | 22.78° C | 87% | 1018.5 hPa | 0 mm | - | 226 W/m² | - |
| 1777378805 | 21.11° C | 92% | 1018.1 hPa | 0 mm | - | 65 W/m² | - |
| 1777374605 | 18.89° C | 97% | 1017.2 hPa | 0 mm | - | 19 W/m² | - |
| 1777368605 | 18.33° C | 96% | 1017 hPa | 0 mm | - | 0 W/m² | - |
* Rain latest hour (hover to see other rain measurements)
** Current wind speed in m/s (hover to see current wind gust speed)